Weather Roundup
Issued by NWS

Home | Current Version | Previous Version | Text Only | Print | Product List | Glossary On
Versions: 1 2 3 4 5 6 7 8 9 10 11 12 13 14 15 16 17 18 19 20 21 22 23 24 25 26 27 28 29 30 31 32 33 34 35 36 37 38 39 40 41 42 43 44 45 46 47 48 49 50
421
NZUS93 KARX 222010
HRRWXR

CURRENT HOURLY OBSERVATIONS ACROSS
MUCH OF THE UPPER MISSISSIPPI VALLEY
NATIONAL WEATHER SERVICE LA CROSSE WI
200 PM CST WED NOV 22 2017


...SOUTHEAST MINNESOTA...


CITY           SKY/WX    TMP DP  RH WIND       PRES   REMARKS
ROCHESTER      CLOUDY    28  15  58 S15       30.16F WCI  16
ROCHESTER/MAYO CLOUDY    28  13  54 S9        30.17F WCI  19
WINONA         CLOUDY    30  14  51 SW7       30.22F WCI  23
AUSTIN         CLOUDY    28  12  50 SW14      30.17F WCI  17
ALBERT LEA     CLOUDY    28  10  47 SW13      30.17F WCI  18
DODGE CENTER   CLOUDY    28  14  54 S16       30.15F WCI  17
PRESTON        MOSUNNY   27  13  55 SW9       30.19F WCI  18
OWATONNA       MOSUNNY   28  16  59 S13       30.17F WCI  18
FARIBAULT      MOSUNNY   28  14  54 S8        30.17F WCI  20
$$

...ELSEWHERE IN MINNESOTA...


CITY           SKY/WX    TMP DP  RH WIND       PRES   REMARKS
MINNEAPOLIS    CLOUDY    26  13  57 S10       30.16F WCI  16
INTNL FALLS      N/A     19  12  74 S8        30.01F WCI   9
DULUTH         CLOUDY    20  12  71 SW13      30.06F WCI   7
RED WING       CLOUDY    28  10  47 S6        30.18F WCI  22
REDWOOD FALLS  CLOUDY    33  12  41 S18       30.07F WCI  22
MANKATO        MOSUNNY   28  15  58 S14       30.14F WCI  17
WORTHINGTON    CLOUDY    32  12  43 S20G25    30.07F WCI  20
FAIRMONT       CLOUDY    32  15  49 S18       30.14F WCI  20
$$

...SOUTHWEST WISCONSIN...


CITY           SKY/WX    TMP DP  RH WIND       PRES   REMARKS
LA CROSSE      MOSUNNY   30  13  49 S9        30.23F WCI  22
PRAIRIE DU CHI CLOUDY    32  12  44 S6        30.24F WCI  26
BOSCOBEL       MOSUNNY   33  14  45 SW8       30.25F WCI  26
LONE ROCK      MOSUNNY   31  15  52 W9        30.24F WCI  23
PLATTEVILLE    PTSUNNY   31  17  54 SW9       30.25F WCI  23
FORT MC COY    CLOUDY    29  14  54 S7        30.23F WCI  22
CAMP DOUGLAS   CLOUDY    28  12  50 SW6       30.20F WCI  22
MAUSTON-NEW LI CLOUDY    30  14  52 S7        30.20F WCI  23
VIROQUA        FAIR      28  17  65 SW10      30.20F WCI  18
WIS DELLS      MOSUNNY   28  13  52 SW9       30.22F WCI  20
$$

...ELSEWHERE IN WISCONSIN...


CITY           SKY/WX    TMP DP  RH WIND       PRES   REMARKS
MILWAUKEE      PTSUNNY   34  15  46 SW12      30.26F WCI  25
MADISON        PTSUNNY   30  14  51 VRB3      30.23F
GREEN BAY      SUNNY     30  16  56 SW9       30.22F WCI  22
EAU CLAIRE     CLOUDY    25  11  55 S9        30.18F WCI  15
BLACK RVR FLS  FAIR      28  10  46 SW6       30.21F WCI  22
MEDFORD        MOSUNNY   23  13  64 S7        30.14F WCI  15
WAUSAU         MOSUNNY   26  12  55 SW10      30.16F WCI  16
WIS RAPIDS     CLOUDY    27  13  55 SW8       30.21F WCI  19
MARSHFIELD     CLOUDY    25  11  55 SW7       30.16F WCI  17
RICE LAKE      CLOUDY    24  13  63 S9        30.18F WCI  14
$$

...NORTHEAST IOWA...


CITY           SKY/WX    TMP DP  RH WIND       PRES   REMARKS
WATERLOO       MOSUNNY   32  12  43 SW10      30.23F WCI  24
DUBUQUE        CLOUDY    31  14  49 W8        30.25F WCI  23
DECORAH        CLOUDY    28  16  59 VRB6G13   30.20F WCI  22
MASON CITY     PTSUNNY   33  12  41 SW17G23   30.20F WCI  22
CHARLES CITY   CLOUDY    30  12  47 SW12      30.21F WCI  21
OELWEIN        MOSUNNY   30  16  55 SW9       30.22F WCI  22
$$

...ELSEWHERE IN IOWA...


CITY           SKY/WX    TMP DP  RH WIND       PRES   REMARKS
DES MOINES     PTSUNNY   38  12  34 SW13      30.25F WCI  30
IOWA CITY      SUNNY     36  15  42 W7        30.31F WCI  30
FORT DODGE     CLOUDY    34  14  43 S15       30.19F WCI  24
MARSHALLTOWN   MOSUNNY   33  14  45 SW9       30.23F WCI  25
CEDAR RAPIDS   SUNNY     33  13  43 SW6       30.26F WCI  28
$$

...NORTHERN ILLINOIS...


CITY           SKY/WX    TMP DP  RH WIND       PRES   REMARKS
CHICAGO-OHARE  MOSUNNY   34  15  46 W8        30.26F WCI  27
CHICAGO-MIDWAY MOSUNNY   35  15  44 SW7       30.27F WCI  29
MOLINE         SUNNY     36  15  42 SW7       30.28F WCI  30
ROCKFORD       MOSUNNY   33  14  45 SW10      30.30F WCI  25
PEORIA         SUNNY     36  15  42 VRB5      30.31F WCI  32
$$

NOTE: "FAIR" INDICATES FEW OR NO CLOUDS BELOW 12,000 FEET WITH NO
SIGNIFICANT WEATHER AND/OR OBSTRUCTIONS TO VISIBILITY. WIND
SPEEDS ARE IN MILES-PER-HOUR.




USA.gov is the U.S. government's official web portal to all federal, state and local government web resources and services.